sat.trackr.live / text

‹ back to catalog

STARLINK-36271

NORAD 68703 · 2026-081E

PAYLOAD ACTIVE UNKNOWN

§ Identity

Operator
Country
US
Launch date
2026-04-14
Launch site
AFETR
Launch vehicle
Mass (kg)
RCS (m²)

Purposes: comms

External: N2YO · Heavens-Above · Gunter

§ Orbital elements

Epoch: 2026-09-19T13:54:29.721888Z

Period
93.85 min
Inclination
53.1587°
Eccentricity
0.0001941
Mean motion
15.34394593 rev/d
Perigee alt
461.4 km
Apogee alt
464.0 km
Semi-major
6,840.9 km
B*
6.3487e-4
RAAN
210.2734°
Arg perigee
89.3904°
Mean anomaly
270.7321°
Rev number
2,447

§ Raw data

STARLINK-362711 68703U 26081E   26262.57951067  .00021131  00000+0  63487-3 0  99972 68703  53.1587 210.2734 0001941  89.3904 270.7321 15.34394593 24477

JSON: /api/v1/satellites/68703 · /tle

For live sub-satellite position, see the globe view (requires WebGL).

§ Visibility from observer

Set your observer location to see the next 7 days of passes ≥ 10°. The values pass through the URL so the page stays shareable.

No JS? Fill the form by hand. The geolocation button needs JavaScript.